Tracking 29892 objects as of 21-Nov-2024
HD Live streaming from Space Station
objects crossing your sky now

STARLINK-30595

Track STARLINK-30595 now!
10-day predictions
STARLINK-30595 is classified as:


NORAD ID: 58111
Int'l Code: 2023-161Q
Perigee: 481.5 km
Apogee: 483.3 km
Inclination: 53.2 °
Period: 94.1 minutes
Semi major axis: 6853 km
RCS: Unknown
Launch date: October 21, 2023
Source: United States (US)
Launch site: AIR FORCE WESTERN TEST RANGE (AFWTR)
Your satellite tracking list
Your tracking list is empty




NASA's NSSDC Master Catalog

Two Line Element Set (TLE):
1 58111U 23161Q   24325.66110089  .00000047  00000-0  13731-4 0  9996
2 58111  53.1604 207.5000 0001350  91.8682 268.2473 15.30192901 61712
Source of the keplerian elements: AFSPC